Minneapolis Flying Cloud, MN

4:45 PM CST on November 21, 2019 (GMT -0600)
Flying Cloud

Weather History for KFCM - September, 2019

Change the Weather History Date:

Monday, September 30, 2019

  Actual Average Record
Temperature  
Mean Temperature 74 °F -  
Max Temperature 87 °F 63 °F 87 °F (2002)
Min Temperature 60 °F 43 °F 32 °F (2003)
Cooling Degree Days 8    
Growing Degree Days 24 (Base 50)    
Moisture  
Dew Point 67 °F    
Average Humidity 80    
Maximum Humidity 90    
Minimum Humidity 59    
Precipitation  
Precipitation 0.02 in - - ()
Sea Level Pressure  
Sea Level Pressure 29.74 in    
Wind  
Wind Speed 11 mph (South)    
Max Wind Speed 18 mph    
Max Gust Speed 24 mph    
Visibility 10 miles    
Events Rain , Thunderstorm    
Averages and records for this station are not official NWS values.
T = Trace of Precipitation, MM = Missing Value Source: NWS Daily Summary

Daily Weather History Graph

Daily Weather History Graph

Search for Another Location

Airport or City:

Astronomy

Sep. 30, 2019 Rise Set
Actual Time 7:10 AM CDT 6:56 PM CDT
Civil Twilight 6:41 AM CDT 7:25 PM CDT
Nautical Twilight 6:07 AM CDT 7:59 PM CDT
Astronomical Twilight 5:32 AM CDT 8:34 PM CDT
Moon 9:19 AM CDT (9/30) 8:27 PM CDT (9/30)
Length of Visible Light 12h 44m
Length of Day
11h 46m
Waxing Crescent, 6% of the Moon is Illuminated
Sep 30
Waxing Crescent
Oct 5
First Quarter
Oct 13
Full
Oct 21
Last Quarter
Oct 27
New

Hourly Weather History & Observations

Time (CDT) Temp. Heat Index Dew Point Humidity Pressure Visibility Wind Dir Wind Speed Gust Speed Precip Events Conditions
12:53 AM 60.1 °F - 57.0 °F 90% 29.89 in 10.0 mi ESE 12.7 mph 19.6 mph N/A   Overcast
1:53 AM 62.1 °F - 59.0 °F 90% 29.86 in 10.0 mi SE 13.8 mph - N/A   Overcast
2:53 AM 63.0 °F - 60.1 °F 90% 29.84 in 10.0 mi ESE 10.4 mph - N/A   Overcast
3:53 AM 64.0 °F - 61.0 °F 90% 29.81 in 10.0 mi ESE 9.2 mph - N/A   Overcast
4:53 AM 66.0 °F - 63.0 °F 90% 29.78 in 9.0 mi ESE 8.1 mph - 0.01 in   Overcast
5:53 AM 69.1 °F - 66.0 °F 90% 29.74 in 10.0 mi SSE 10.4 mph 18.4 mph N/A   Overcast
6:53 AM 71.1 °F - 66.9 °F 87% 29.72 in 10.0 mi SSE 10.4 mph - N/A   Overcast
7:22 AM 71.1 °F - 66.9 °F 87% 29.71 in 10.0 mi SSE 10.4 mph - N/A   Overcast
7:53 AM 73.0 °F - 68.0 °F 84% 29.70 in 9.0 mi South 12.7 mph - N/A   Overcast
8:53 AM 75.0 °F - 69.1 °F 82% 29.72 in 10.0 mi SSW 8.1 mph - N/A   Overcast
9:53 AM 75.0 °F - 69.1 °F 82% 29.72 in 10.0 mi SSW 8.1 mph - N/A   Overcast
10:53 AM 75.9 °F - 70.0 °F 82% 29.71 in 10.0 mi South 9.2 mph - N/A   Overcast
11:53 AM 78.1 °F - 71.1 °F 79% 29.70 in 10.0 mi South 11.5 mph - N/A   Overcast
12:14 PM 80.1 °F 83.6 °F 71.1 °F 74% 29.69 in 10.0 mi South 11.5 mph - N/A   Mostly Cloudy
12:53 PM 81.0 °F 84.9 °F 71.1 °F 72% 29.68 in 10.0 mi South 11.5 mph - N/A   Mostly Cloudy
1:00 PM 80.1 °F 83.6 °F 71.1 °F 74% 29.69 in 10.0 mi South 11.5 mph - N/A   Overcast
1:49 PM 80.6 °F 84.6 °F 71.6 °F 74% 29.68 in 10.0 mi South 10.4 mph - N/A   Overcast
1:53 PM 81.0 °F 84.9 °F 71.1 °F 72% 29.67 in 10.0 mi South 11.5 mph - N/A   Overcast
2:53 PM 82.0 °F 86.7 °F 72.0 °F 71% 29.66 in 10.0 mi South 8.1 mph - N/A   Overcast
3:53 PM 84.9 °F 91.4 °F 73.0 °F 67% 29.65 in 10.0 mi SSW 9.2 mph - N/A   Overcast
4:53 PM 87.1 °F 92.8 °F 71.1 °F 59% 29.65 in 10.0 mi SSW 11.5 mph - N/A   Scattered Clouds
5:53 PM 84.0 °F 89.0 °F 71.1 °F 65% 29.66 in 10.0 mi SSW 10.4 mph - N/A   Clear
6:53 PM 82.0 °F 85.9 °F 70.0 °F 67% 29.66 in 10.0 mi South 6.9 mph - N/A Thunderstorm Partly Cloudy
7:27 PM 77.0 °F - 70.0 °F 79% 29.70 in 5.0 mi NW 18.4 mph 24.2 mph 0.01 in Rain , Thunderstorm Thunderstorms and Rain
7:53 PM 75.0 °F - 70.0 °F 84% 29.70 in 10.0 mi NW 8.1 mph - 0.01 in Thunderstorm Mostly Cloudy
8:13 PM 75.9 °F - 70.0 °F 82% 29.73 in 10.0 mi WNW 10.4 mph 17.3 mph N/A   Mostly Cloudy
8:53 PM 73.9 °F - 68.0 °F 82% 29.75 in 10.0 mi West 8.1 mph - N/A   Mostly Cloudy
9:53 PM 69.1 °F - 64.9 °F 87% 29.80 in 10.0 mi Variable 4.6 mph - N/A   Scattered Clouds
10:21 PM 69.1 °F - 64.0 °F 84% 29.82 in 10.0 mi WNW 11.5 mph 20.7 mph N/A   Overcast
10:53 PM 68.0 °F - 63.0 °F 84% 29.82 in 10.0 mi WNW 6.9 mph - N/A   Overcast
11:03 PM 66.9 °F - 62.1 °F 84% 29.83 in 10.0 mi WNW 9.2 mph - N/A   Overcast
11:53 PM 64.9 °F - 61.0 °F 87% 29.84 in 9.0 mi NW 12.7 mph 19.6 mph N/A   Overcast